Find Starlink 36272

NORAD ID: 68215 Int'l Des: 2026-053 Owner: SPXS Country: US Constellation: starlink operational
LEOCIRCULARRETROGRADE

現在のビュー

3D地球を読み込み中...

About Starlink 36272

Starlink 36272 (NORAD 68215) is a starlink constellation satellite (v2 mini) launched Mar 17, 2026 by SPXS of US. It operates in LEO, CIRCULAR, RETROGRADE orbit with a mass of 575.00 kg.

Starlink 36272について

説明を読み込み中...

次回通過

Passes for default location (London). Set your location on the main map for personalized predictions.

高度履歴

Loading altitude history...

軌道要素

1 68215U 26053J 26167.19707788 .00013894 00000-0 43183-3 0 9994
2 68215 97.2850 42.3151 0001202 87.4565 272.6816 15.33450461 15292
Epoch: Jun 16, 2026 • Age: 7 hours

現在のステータス

高度 478.1 km
速度 7.63 km/s
衛星直下点 81.20°N, 87.78°W
打ち上げ日 Mar 17, 2026
運用期間 0.2 years
タイプ internet

技術仕様

分類 Payload
質量 575.00 kg
乾燥質量 530.00 kg
総質量 575.00 kg
長さ 0.30 m
直径 4.10 m
スパン 29.00 m
形状 Box + pan
製造者 SPXS
バスタイプ Starlink V2MO
フェーズステータス In Orbit
所有者/国 SPXS/US

Most Searched